When you browse on this site, cookies collect data to enhance your experience and personalize the content and advertising you see.
Visit our Privacy Policy to learn more. By continuing to use the site, you agree to this use of cookies and data.
  • En España
  • Lista de países
  • Para 7 días
  • Temperatura del agua
  • El tiempo en el mapa
  • Informadores
  • user-avatar
    Iniciar sesión

    Tiempo cada hora Chiquimula

    Hoy, 29 Febrero, Sábado

    Tiempo Temperatura Precipitaciones Viento Presión Humedad
    00:00 +17°C° 0 mm 2 mps 713 mmHg 91%
    01:00 +17°C° 0 mm 2 mps 713 mmHg 92%
    02:00 +17°C° 0 mm 2 mps 712 mmHg 93%
    03:00 +17°C° 0 mm 2 mps 712 mmHg 93%
    04:00 +17°C° 0.1 mm 2 mps 712 mmHg 94%
    05:00 +17°C° 0.1 mm 2 mps 712 mmHg 94%
    06:00 +17°C° 0.1 mm 2 mps 712 mmHg 94%
    07:00 +18°C° 0 mm 3 mps 713 mmHg 90%
    08:00 +19°C° 0 mm 3 mps 713 mmHg 86%
    09:00 +19°C° 0 mm 3 mps 714 mmHg 83%
    10:00 +20°C° 0 mm 3 mps 713 mmHg 78%
    11:00 +21°C° 0 mm 3 mps 713 mmHg 73%
    12:00 +22°C° 0 mm 4 mps 713 mmHg 68%
    13:00 +23°C° 0 mm 4 mps 712 mmHg 66%
    14:00 +23°C° 0 mm 4 mps 711 mmHg 63%
    15:00 +25°C° 0 mm 4 mps 711 mmHg 60%
    16:00 +22°C° 0 mm 3 mps 711 mmHg 65%
    17:00 +21°C° 0 mm 3 mps 711 mmHg 71%
    18:00 +19°C° 0 mm 3 mps 711 mmHg 76%
    19:00 +18°C° 0 mm 2 mps 711 mmHg 82%
    20:00 +17°C° 0 mm 2 mps 711 mmHg 88%
    21:00 +16°C° 0 mm 2 mps 712 mmHg 94%
    22:00 +15°C° 0 mm 2 mps 711 mmHg 93%
    23:00 +15°C° 0 mm 1 mps 711 mmHg 93%

    Mañana, 1 Marzo, Domingo

    Tiempo Temperatura Precipitaciones Viento Presión Humedad
    00:00 +15°C° 0 mm 1 mps 711 mmHg 93%
    01:00 +15°C° 0 mm 1 mps 711 mmHg 91%
    02:00 +16°C° 0 mm 1 mps 710 mmHg 90%
    03:00 +16°C° 0 mm 1 mps 710 mmHg 88%
    04:00 +16°C° 0 mm 1 mps 710 mmHg 89%
    05:00 +16°C° 0 mm 1 mps 711 mmHg 90%
    06:00 +16°C° 0 mm 1 mps 711 mmHg 92%
    07:00 +19°C° 0 mm 1 mps 711 mmHg 83%
    08:00 +21°C° 0 mm 1 mps 712 mmHg 74%
    09:00 +24°C° 0 mm 1 mps 712 mmHg 65%
    10:00 +25°C° 0 mm 2 mps 712 mmHg 60%
    11:00 +27°C° 0 mm 2 mps 711 mmHg 54%
    12:00 +29°C° 0 mm 2 mps 711 mmHg 48%
    13:00 +29°C° 0 mm 3 mps 710 mmHg 49%
    14:00 +29°C° 0 mm 3 mps 709 mmHg 50%
    15:00 +29°C° 0 mm 3 mps 708 mmHg 52%
    16:00 +27°C° 0 mm 3 mps 708 mmHg 60%
    17:00 +25°C° 0 mm 3 mps 708 mmHg 69%
    18:00 +23°C° 0 mm 2 mps 708 mmHg 77%
    19:00 +21°C° 0 mm 2 mps 708 mmHg 83%
    20:00 +20°C° 0 mm 2 mps 709 mmHg 90%
    21:00 +20°C° 0 mm 1 mps 709 mmHg 96%
    22:00 +20°C° 0 mm 1 mps 709 mmHg 96%
    23:00 +19°C° 0 mm 1 mps 709 mmHg 97%

    Pasado mañana, 2 Marzo, Lunes

    Tiempo Temperatura Precipitaciones Viento Presión Humedad
    00:00 +19°C° 0 mm 1 mps 709 mmHg 97%
    01:00 +19°C° 0 mm 1 mps 708 mmHg 97%
    02:00 +19°C° 0 mm 1 mps 708 mmHg 96%
    03:00 +19°C° 0 mm 1 mps 707 mmHg 95%
    04:00 +19°C° 0 mm 1 mps 708 mmHg 95%
    05:00 +17°C° 0 mm 0 mps 708 mmHg 95%
    06:00 +17°C° 0 mm 0 mps 708 mmHg 95%
    07:00 +19°C° 0 mm 0 mps 708 mmHg 83%
    08:00 +22°C° 0 mm 0 mps 709 mmHg 72%
    09:00 +27°C° 0 mm 1 mps 710 mmHg 60%
    10:00 +30°C° 0 mm 1 mps 709 mmHg 52%
    11:00 +32°C° 0 mm 1 mps 709 mmHg 44%
    12:00 +35°C° 0 mm 1 mps 709 mmHg 37%
    13:00 +36°C° 0 mm 1 mps 708 mmHg 34%
    14:00 +36°C° 0 mm 1 mps 707 mmHg 32%
    15:00 +36°C° 0 mm 1 mps 706 mmHg 30%
    16:00 +34°C° 0 mm 1 mps 706 mmHg 39%
    17:00 +31°C° 0 mm 1 mps 706 mmHg 49%
    18:00 +28°C° 0 mm 2 mps 706 mmHg 58%
    19:00 +26°C° 0 mm 1 mps 706 mmHg 69%
    20:00 +24°C° 0 mm 1 mps 706 mmHg 80%
    21:00 +23°C° 0 mm 1 mps 707 mmHg 91%
    22:00 +20°C° 0 mm 0 mps 707 mmHg 92%
    23:00 +20°C° 0 mm 0 mps 707 mmHg 93%

    3 Marzo, Martes

    Tiempo Temperatura Precipitaciones Viento Presión Humedad
    00:00 +20°C° 0 mm 0 mps 707 mmHg 94%
    01:00 +20°C° 0 mm 0 mps 706 mmHg 93%
    02:00 +19°C° 0 mm 0 mps 706 mmHg 93%
    03:00 +21°C° 0 mm 1 mps 705 mmHg 92%
    04:00 +21°C° 0 mm 1 mps 706 mmHg 91%
    05:00 +21°C° 0 mm 1 mps 706 mmHg 90%
    06:00 +21°C° 0 mm 1 mps 706 mmHg 89%
    07:00 +24°C° 0 mm 1 mps 707 mmHg 77%
    08:00 +27°C° 0 mm 2 mps 708 mmHg 65%
    09:00 +29°C° 0 mm 2 mps 708 mmHg 53%
    10:00 +31°C° 0 mm 2 mps 708 mmHg 46%
    11:00 +34°C° 0 mm 3 mps 708 mmHg 39%
    12:00 +36°C° 0 mm 3 mps 707 mmHg 32%
    13:00 +36°C° 0 mm 3 mps 707 mmHg 30%
    14:00 +36°C° 0 mm 3 mps 706 mmHg 29%
    15:00 +37°C° 0 mm 3 mps 705 mmHg 28%
    16:00 +35°C° 0 mm 2 mps 705 mmHg 34%
    17:00 +32°C° 0 mm 2 mps 705 mmHg 40%
    18:00 +29°C° 0 mm 1 mps 705 mmHg 47%
    19:00 +28°C° 0 mm 1 mps 706 mmHg 55%
    20:00 +26°C° 0 mm 1 mps 706 mmHg 63%
    21:00 +25°C° 0 mm 1 mps 707 mmHg 72%
    22:00 +24°C° 0 mm 1 mps 707 mmHg 76%
    23:00 +23°C° 0 mm 1 mps 707 mmHg 80%

    4 Marzo, Miércoles

    Tiempo Temperatura Precipitaciones Viento Presión Humedad
    00:00 +23°C° 0 mm 2 mps 707 mmHg 84%
    01:00 +21°C° 0 mm 2 mps 706 mmHg 86%
    02:00 +21°C° 0 mm 2 mps 706 mmHg 89%
    03:00 +20°C° 0 mm 2 mps 706 mmHg 91%
    04:00 +21°C° 0 mm 1 mps 706 mmHg 90%
    05:00 +21°C° 0 mm 1 mps 706 mmHg 89%
    06:00 +21°C° 0 mm 1 mps 707 mmHg 88%
    07:00 +23°C° 0 mm 1 mps 708 mmHg 77%
    08:00 +26°C° 0 mm 1 mps 709 mmHg 65%
    09:00 +29°C° 0 mm 1 mps 709 mmHg 53%
    10:00 +32°C° 0 mm 1 mps 709 mmHg 45%
    11:00 +34°C° 0 mm 1 mps 709 mmHg 38%
    12:00 +37°C° 0 mm 1 mps 709 mmHg 30%
    13:00 +37°C° 0 mm 1 mps 709 mmHg 28%
    14:00 +38°C° 0 mm 2 mps 708 mmHg 26%
    15:00 +38°C° 0 mm 2 mps 707 mmHg 25%
    16:00 +36°C° 0 mm 2 mps 707 mmHg 34%
    17:00 +32°C° 0 mm 2 mps 708 mmHg 42%
    18:00 +30°C° 0 mm 2 mps 708 mmHg 51%
    19:00 +28°C° 0 mm 2 mps 709 mmHg 61%
    20:00 +26°C° 0 mm 2 mps 710 mmHg 71%
    21:00 +25°C° 0 mm 2 mps 710 mmHg 81%
    22:00 +24°C° 0.1 mm 3 mps 711 mmHg 82%
    23:00 +22°C° 0.1 mm 3 mps 711 mmHg 84%

    5 Marzo, Jueves

    Tiempo Temperatura Precipitaciones Viento Presión Humedad
    00:00 +21°C° 0.1 mm 3 mps 711 mmHg 86%
    01:00 +20°C° 0 mm 3 mps 711 mmHg 87%
    02:00 +20°C° 0 mm 3 mps 711 mmHg 88%
    03:00 +19°C° 0 mm 2 mps 710 mmHg 89%
    04:00 +19°C° 0.1 mm 3 mps 711 mmHg 88%
    05:00 +18°C° 0.1 mm 3 mps 711 mmHg 88%
    06:00 +18°C° 0.1 mm 3 mps 711 mmHg 87%
    07:00 +19°C° 0 mm 3 mps 712 mmHg 82%
    08:00 +19°C° 0 mm 3 mps 713 mmHg 76%
    09:00 +20°C° 0 mm 3 mps 713 mmHg 71%
    10:00 +21°C° 0 mm 3 mps 713 mmHg 67%
    11:00 +22°C° 0 mm 4 mps 713 mmHg 63%
    12:00 +23°C° 0 mm 4 mps 713 mmHg 59%
    13:00 +25°C° 0 mm 4 mps 712 mmHg 58%
    14:00 +25°C° 0 mm 4 mps 712 mmHg 57%
    15:00 +26°C° 0 mm 4 mps 711 mmHg 56%
    16:00 +24°C° 0 mm 3 mps 711 mmHg 62%
    17:00 +21°C° 0 mm 3 mps 711 mmHg 69%
    18:00 +20°C° 0 mm 3 mps 711 mmHg 75%
    19:00 +19°C° 0 mm 2 mps 712 mmHg 79%
    20:00 +18°C° 0 mm 2 mps 712 mmHg 84%
    21:00 +17°C° 0 mm 2 mps 712 mmHg 88%
    22:00 +17°C° 0 mm 2 mps 712 mmHg 90%
    23:00 +17°C° 0 mm 2 mps 712 mmHg 92%
    Mostrar más